Weather History for KAIT - January, 2013

Change the Weather History Date:

Monday, January 28, 2013

  Actual Average Record
Temperature  
Mean Temperature 29 °F -  
Max Temperature 32 °F 18 °F 41 °F (1976)
Min Temperature 26 °F -3 °F -32 °F (1966)
Degree Days  
Heating Degree Days 36    
Moisture  
Dew Point 24 °F    
Average Humidity 80    
Maximum Humidity 86    
Minimum Humidity 74    
Precipitation  
Precipitation 0.05 in - - ()
Sea Level Pressure  
Sea Level Pressure 29.78 in    
Wind  
Wind Speed 2 mph (SE)    
Max Wind Speed 12 mph    
Max Gust Speed 18 mph    
Visibility 3 miles    
Events Snow    
Averages and records for this station are not official NWS values.
T = Trace of Precipitation, MM = Missing Value Source: NWS Daily Summary

Daily Weather History Graph

Daily Weather History Graph

Search for Another Location

Airport or City:

Trip Planner

Search our weather history database for the weather conditions in past years. The results will help you decide how hot, cold, wet, or windy it might be!

Date:

Astronomy

Jan. 28, 2013 Rise Set
Actual Time 7:42 AM CST 5:13 PM CST
Civil Twilight 7:10 AM CST 5:45 PM CST
Nautical Twilight 6:33 AM CST 6:22 PM CST
Astronomical Twilight 5:58 AM CST 6:57 PM CST
Moon 7:18 PM CST (1/28) 8:00 AM CST (1/28)
Length of Visible Light 10h 35m
Length of Day
9h 30m
Full, 98% of the Moon is Illuminated
Jan 28
Full
Feb 3
Last Quarter
Feb 10
New
Feb 17
First Quarter
Feb 25
Full

Hourly Weather History & Observations

Time (CST) Temp. Windchill Dew Point Humidity Pressure Visibility Wind Dir Wind Speed Gust Speed Precip Events Conditions
12:12 AM 28.4 °F - 23.0 °F 80% 29.79 in 2.5 mi Calm Calm - 0.01 in Snow Light Snow
12:32 AM 28.4 °F 24.6 °F 23.0 °F 80% 29.78 in 4.0 mi NE 3.5 mph - 0.02 in Snow Light Snow
12:53 AM 28.4 °F - 23.0 °F 80% 29.78 in 4.0 mi Calm Calm - 0.02 in Snow Light Snow
1:12 AM 28.4 °F - 21.2 °F 74% 29.78 in 3.0 mi Calm Calm - 0.01 in Snow Light Snow
1:53 AM 28.4 °F - 23.0 °F 80% 29.79 in 2.5 mi Calm Calm - 0.01 in Snow Light Snow
2:12 AM 28.4 °F - 23.0 °F 80% 29.78 in 3.0 mi Calm Calm - 0.01 in Snow Light Snow
2:53 AM 26.6 °F - 21.2 °F 80% 29.79 in 4.0 mi Calm Calm - 0.01 in   Mostly Cloudy
3:12 AM 26.6 °F - 21.2 °F 80% 29.79 in 5.0 mi Calm Calm - N/A   Overcast
3:32 AM 26.6 °F 22.6 °F 21.2 °F 80% 29.78 in 5.0 mi ENE 3.5 mph - N/A   Haze
3:53 AM 26.6 °F - 21.2 °F 80% 29.79 in 5.0 mi Calm Calm - N/A   Haze
4:13 AM 28.4 °F - 21.2 °F 74% 29.80 in 5.0 mi Calm Calm - N/A   Haze
4:32 AM 26.6 °F - 21.2 °F 80% 29.79 in 5.0 mi Calm Calm - N/A   Haze
4:53 AM 26.6 °F - 21.2 °F 80% 29.80 in 5.0 mi Calm Calm - N/A   Haze
5:13 AM 26.6 °F - 21.2 °F 80% 29.81 in 5.0 mi Calm Calm - N/A   Haze
5:32 AM 26.6 °F - 21.2 °F 80% 29.79 in 5.0 mi Calm Calm - N/A   Haze
5:53 AM 26.6 °F - 21.2 °F 80% 29.79 in 5.0 mi Calm Calm - N/A   Haze
6:13 AM 26.6 °F - 21.2 °F 80% 29.79 in 5.0 mi Calm Calm - N/A   Haze
6:32 AM 26.6 °F - 21.2 °F 80% 29.79 in 5.0 mi Calm Calm - N/A   Haze
6:53 AM 26.6 °F - 21.2 °F 80% 29.81 in 5.0 mi Calm Calm - N/A   Haze
7:13 AM 26.6 °F - 21.2 °F 80% 29.81 in 5.0 mi Calm Calm - N/A   Haze
7:32 AM 28.4 °F - 21.2 °F 74% 29.81 in 5.0 mi Calm Calm - N/A   Haze
7:53 AM 28.4 °F 23.3 °F 21.2 °F 74% 29.83 in 4.0 mi SSW 4.6 mph - N/A   Haze
8:13 AM 28.4 °F - 23.0 °F 80% 29.82 in 3.0 mi Calm Calm - N/A   Haze
8:32 AM 28.4 °F - 23.0 °F 80% 29.83 in 3.0 mi Calm Calm - N/A   Haze
8:53 AM 28.4 °F - 23.0 °F 80% 29.82 in 2.5 mi Calm Calm - N/A   Haze
9:13 AM 28.4 °F 24.6 °F 23.0 °F 80% 29.81 in 2.5 mi SE 3.5 mph - N/A   Haze
9:32 AM 28.4 °F 24.6 °F 23.0 °F 80% 29.82 in 2.0 mi South 3.5 mph - N/A   Haze
9:52 AM 28.4 °F 23.3 °F 24.8 °F 86% 29.82 in 1.8 mi SSE 4.6 mph - N/A   Haze
10:12 AM 30.2 °F 24.3 °F 24.8 °F 80% 29.83 in 2.0 mi South 5.8 mph - N/A   Haze
10:33 AM 30.2 °F 26.7 °F 24.8 °F 80% 29.83 in 2.5 mi SSE 3.5 mph - N/A   Haze
10:52 AM 30.2 °F 24.3 °F 24.8 °F 80% 29.82 in 2.5 mi SE 5.8 mph - N/A   Haze
11:12 AM 30.2 °F 24.3 °F 24.8 °F 80% 29.82 in 3.0 mi SE 5.8 mph - N/A   Haze
11:33 AM 30.2 °F 22.6 °F 24.8 °F 80% 29.81 in 4.0 mi SSE 8.1 mph - N/A   Haze
11:52 AM 30.2 °F 21.9 °F 24.8 °F 80% 29.81 in 4.0 mi SSE 9.2 mph - N/A   Haze
12:12 PM 30.2 °F 25.4 °F 24.8 °F 80% 29.81 in 4.0 mi SSE 4.6 mph - N/A   Haze
12:33 PM 30.2 °F 22.6 °F 24.8 °F 80% 29.81 in 4.0 mi South 8.1 mph - N/A   Haze
12:52 PM 32.0 °F 24.2 °F 26.6 °F 80% 29.81 in 3.0 mi South 9.2 mph - N/A   Haze
1:12 PM 32.0 °F 23.0 °F 24.8 °F 75% 29.81 in 3.0 mi South 11.5 mph 18.4 mph N/A   Haze
1:33 PM 32.0 °F 24.8 °F 24.8 °F 75% 29.80 in 3.0 mi South 8.1 mph - N/A   Haze
1:52 PM 32.0 °F 25.6 °F 26.6 °F 80% 29.80 in 4.0 mi SSE 6.9 mph - N/A   Haze
2:13 PM 30.2 °F 23.4 °F 26.6 °F 86% 29.79 in 3.0 mi SSE 6.9 mph - N/A   Haze
2:32 PM 30.2 °F 24.3 °F 26.6 °F 86% 29.79 in 2.5 mi SE 5.8 mph - N/A   Haze
2:53 PM 32.0 °F 25.6 °F 26.6 °F 80% 29.78 in 3.0 mi SSE 6.9 mph - N/A   Haze
3:13 PM 32.0 °F 25.6 °F 26.6 °F 80% 29.79 in 3.0 mi SSE 6.9 mph - N/A   Haze
3:32 PM 32.0 °F 26.4 °F 26.6 °F 80% 29.79 in 3.0 mi SSE 5.8 mph - N/A   Haze
4:13 PM 32.0 °F 28.7 °F 26.6 °F 80% 29.80 in 4.0 mi South 3.5 mph - N/A   Haze
4:32 PM 32.0 °F 26.4 °F 26.6 °F 80% 29.78 in 2.5 mi SE 5.8 mph - N/A   Haze
4:53 PM 32.0 °F 25.6 °F 26.6 °F 80% 29.77 in 2.0 mi SE 6.9 mph - N/A   Haze
5:13 PM 32.0 °F 26.4 °F 26.6 °F 80% 29.77 in 3.0 mi South 5.8 mph - N/A   Haze
5:32 PM 32.0 °F 26.4 °F 26.6 °F 80% 29.76 in 4.0 mi SSE 5.8 mph - N/A   Haze
5:53 PM 32.0 °F 25.6 °F 26.6 °F 80% 29.77 in 4.0 mi SSE 6.9 mph - N/A   Haze
6:12 PM 32.0 °F 25.6 °F 26.6 °F 80% 29.77 in 3.0 mi SSE 6.9 mph - N/A   Haze
6:32 PM 32.0 °F 25.6 °F 26.6 °F 80% 29.78 in 3.0 mi SSE 6.9 mph - N/A   Haze
6:52 PM 32.0 °F 25.6 °F 26.6 °F 80% 29.77 in 3.0 mi SSE 6.9 mph - N/A   Haze
7:12 PM 32.0 °F 27.5 °F 26.6 °F 80% 29.77 in 3.0 mi SE 4.6 mph - N/A   Haze
7:33 PM 32.0 °F 27.5 °F 26.6 °F 80% 29.75 in 3.0 mi SSE 4.6 mph - N/A   Overcast
7:52 PM 32.0 °F 27.5 °F 26.6 °F 80% 29.76 in 2.5 mi SE 4.6 mph - N/A Snow Light Snow
8:12 PM 32.0 °F 28.7 °F 26.6 °F 80% 29.74 in 2.5 mi East 3.5 mph - N/A   Overcast
8:33 PM 32.0 °F - 26.6 °F 80% 29.73 in 2.0 mi Calm Calm - N/A   Haze
8:52 PM 32.0 °F - 26.6 °F 80% 29.73 in 1.8 mi Calm Calm - N/A   Overcast
9:13 PM 30.2 °F - 26.6 °F 86% 29.72 in 2.5 mi Calm Calm - N/A   Haze
9:32 PM 30.2 °F 26.7 °F 26.6 °F 86% 29.73 in 2.5 mi SE 3.5 mph - N/A   Haze
9:53 PM 30.2 °F - 26.6 °F 86% 29.71 in 2.0 mi Calm Calm - N/A   Haze
10:13 PM 30.2 °F 26.7 °F 26.6 °F 86% 29.70 in 1.8 mi ESE 3.5 mph - N/A Snow Light Snow
10:32 PM 30.2 °F - 26.6 °F 86% 29.67 in 1.2 mi Calm Calm - N/A   Haze
10:53 PM 30.2 °F 25.4 °F 26.6 °F 86% 29.65 in 1.0 mi ENE 4.6 mph - N/A   Haze
11:13 PM 30.2 °F 25.4 °F 26.6 °F 86% 29.64 in 1.0 mi NE 4.6 mph - N/A   Haze
11:32 PM 30.2 °F - 26.6 °F 86% 29.64 in 0.8 mi Calm Calm - N/A   Overcast
11:53 PM 32.0 °F 28.7 °F 26.6 °F 80% 29.64 in 1.2 mi NNW 3.5 mph - 0.01 in   Overcast